QPF
0.00 0.02 0.03 0.04 0.10 0.11 0.08 0.06 0.05 0.04 0.02 0.01 0.00 0.01 0.02 0.03 0.05 0.06 0.05 0.04 0.06 0.05 0.07 0.12 0.12 0.10 0.09 0.08 0.05 0.05 0.06 0.10 0.10 0.10 0.11 0.09 0.10 0.13 0.12 0.05 0.05 0.06 0.05 0.06 0.06 0.05 0.04 0.04 0.04
0.00 0.01 0.03 0.08 0.13 0.10 0.07 0.06 0.05 0.03 0.01 0.01 0.00 0.00 0.00 0.01 0.01 0.02 0.04 0.04 0.04 0.03 0.02 0.04 0.06 0.07 0.06 0.05 0.05 0.04 0.04 0.06 0.08 0.07 0.08 0.09 0.11 0.10 0.06 0.04 0.04 0.05 0.05 0.04 0.04 0.05 0.06 0.05 0.04
0.00 0.01 0.04 0.09 0.09 0.07 0.06 0.06 0.02 0.01 0.00 0.00 0.00 0.00 0.01 0.01 0.01 0.01 0.02 0.04 0.02 0.01 0.01 0.02 0.04 0.05 0.05 0.05 0.04 0.04 0.04 0.04 0.04 0.05 0.07 0.07 0.08 0.07 0.04 0.03 0.02 0.03 0.04 0.03 0.03 0.04 0.05 0.04 0.05
0.02 0.03 0.05 0.07 0.05 0.04 0.07 0.06 0.01 0.00 0.00 0.00 0.01 0.01 0.01 0.01 0.02 0.02 0.03 0.02 0.01 0.01 0.01 0.02 0.03 0.04 0.06 0.06 0.06 0.05 0.04 0.03 0.03 0.03 0.05 0.06 0.05 0.06 0.04 0.03 0.02 0.02 0.03 0.03 0.03 0.03 0.03 0.03 0.03
0.02 0.04 0.07 0.05 0.03 0.03 0.02 0.01 0.00 0.00 0.01 0.01 0.01 0.01 0.03 0.02 0.02 0.03 0.03 0.02 0.00 0.01 0.02 0.02 0.03 0.04 0.05 0.05 0.05 0.05 0.05 0.04 0.03 0.03 0.05 0.06 0.05 0.04 0.04 0.05 0.04 0.03 0.03 0.04 0.03 0.03 0.03 0.03 0.02
0.03 0.04 0.07 0.04 0.02 0.02 0.02 0.01 0.01 0.00 0.01 0.01 0.02 0.01 0.02 0.01 0.01 0.01 0.02 0.01 0.00 0.01 0.02 0.03 0.02 0.03 0.04 0.04 0.04 0.04 0.04 0.04 0.03 0.03 0.04 0.04 0.05 0.05 0.04 0.03 0.02 0.02 0.02 0.02 0.03 0.03 0.02 0.03 0.02
0.03 0.04 0.05 0.03 0.02 0.03 0.03 0.01 0.01 0.01 0.00 0.01 0.01 0.01 0.02 0.01 0.00 0.00 0.01 0.01 0.01 0.01 0.02 0.03 0.02 0.02 0.03 0.04 0.04 0.05 0.04 0.03 0.03 0.02 0.02 0.02 0.04 0.04 0.02 0.02 0.02 0.02 0.02 0.02 0.02 0.03 0.03 0.02 0.01
0.01 0.03 0.03 0.03 0.02 0.02 0.01 0.01 0.00 0.00 0.00 0.00 0.00 0.01 0.01 0.01 0.01 0.01 0.01 0.02 0.02 0.02 0.02 0.04 0.05 0.03 0.03 0.03 0.02 0.02 0.02 0.01 0.01 0.02 0.02 0.02 0.03 0.03 0.02 0.02 0.02 0.02 0.02 0.03 0.04 0.03 0.02 0.01 0.01
0.01 0.04 0.05 0.03 0.02 0.01 0.00 0.00 0.00 0.00 0.00 0.00 0.00 0.00 0.00 0.01 0.02 0.01 0.01 0.01 0.02 0.02 0.01 0.02 0.02 0.01 0.01 0.01 0.01 0.01 0.01 0.00 0.01 0.01 0.02 0.02 0.03 0.03 0.03 0.03 0.02 0.02 0.02 0.02 0.03 0.03 0.02 0.01 0.01
0.01 0.04 0.04 0.01 0.01 0.00 0.00 0.00 0.00 0.00 0.00 0.00 0.00 0.00 0.00 0.00 0.02 0.02 0.01 0.01 0.02 0.02 0.02 0.02 0.01 0.00 0.01 0.00 0.00 0.01 0.01 0.01 0.01 0.02 0.02 0.02 0.02 0.03 0.02 0.02 0.02 0.03 0.02 0.01 0.01 0.02 0.02 0.02 0.02
0.01 0.02 0.02 0.01 0.00 0.00 0.00 0.00 0.00 0.00 0.01 0.00 0.00 0.00 0.00 0.00 0.01 0.03 0.01 0.01 0.01 0.02 0.02 0.03 0.02 0.01 0.01 0.01 0.01 0.01 0.01 0.01 0.02 0.02 0.01 0.01 0.01 0.01 0.01 0.02 0.02 0.03 0.04 0.03 0.02 0.02 0.02 0.02 0.02
0.01 0.01 0.01 0.01 0.00 0.00 0.00 0.00 0.00 0.01 0.01 0.00 0.00 0.00 0.00 0.01 0.01 0.02 0.01 0.01 0.01 0.01 0.01 0.02 0.03 0.03 0.01 0.01 0.01 0.01 0.01 0.01 0.01 0.02 0.01 0.00 0.01 0.01 0.01 0.01 0.01 0.02 0.01 0.01 0.01 0.02 0.01 0.01 0.01
0.01 0.01 0.01 0.01 0.00 0.00 0.00 0.00 0.00 0.00 0.00 0.00 0.00 0.01 0.01 0.01 0.01 0.01 0.01 0.01 0.01 0.01 0.01 0.01 0.01 0.02 0.02 0.01 0.02 0.01 0.02 0.01 0.01 0.01 0.01 0.01 0.01 0.02 0.02 0.01 0.01 0.01 0.01 0.01 0.01 0.01 0.00 0.01 0.01
0.02 0.01 0.01 0.01 0.00 0.00 0.00 0.00 0.00 0.00 0.00 0.00 0.00 0.01 0.01 0.00 0.01 0.02 0.01 0.00 0.01 0.01 0.01 0.01 0.01 0.02 0.02 0.02 0.03 0.03 0.03 0.03 0.03 0.02 0.01 0.01 0.01 0.01 0.02 0.02 0.02 0.01 0.00 0.00 0.00 0.01 0.01 0.01 0.02
0.01 0.01 0.01 0.01 0.01 0.00 0.01 0.01 0.00 0.00 0.00 0.00 0.00 0.00 0.01 0.01 0.01 0.02 0.01 0.00 0.00 0.01 0.01 0.02 0.02 0.02 0.03 0.03 0.03 0.04 0.03 0.02 0.02 0.01 0.01 0.01 0.00 0.01 0.01 0.02 0.02 0.01 0.00 0.00 0.01 0.01 0.01 0.01 0.02
0.01 0.02 0.02 0.01 0.01 0.00 0.01 0.01 0.00 0.00 0.00 0.00 0.00 0.00 0.01 0.01 0.01 0.01 0.00 0.00 0.01 0.01 0.01 0.02 0.03 0.03 0.04 0.03 0.02 0.02 0.01 0.01 0.01 0.01 0.01 0.01 0.00 0.00 0.01 0.01 0.01 0.00 0.00 0.01 0.01 0.01 0.01 0.02 0.02
0.01 0.02 0.02 0.01 0.00 0.00 0.01 0.01 0.00 0.00 0.00 0.00 0.00 0.00 0.00 0.01 0.01 0.00 0.00 0.01 0.00 0.00 0.01 0.01 0.02 0.02 0.02 0.03 0.02 0.01 0.01 0.01 0.01 0.01 0.01 0.00 0.00 0.00 0.01 0.01 0.00 0.00 0.01 0.01 0.02 0.02 0.02 0.02 0.02
0.00 0.01 0.01 0.01 0.00 0.00 0.00 0.00 0.00 0.00 0.00 0.00 0.00 0.00 0.00 0.00 0.01 0.00 0.00 0.00 0.00 0.00 0.00 0.01 0.01 0.01 0.01 0.02 0.02 0.02 0.02 0.02 0.01 0.01 0.00 0.00 0.00 0.00 0.01 0.01 0.00 0.00 0.01 0.01 0.01 0.02 0.02 0.02 0.02
0.00 0.01 0.01 0.01 0.00 0.00 0.00 0.00 0.00 0.00 0.00 0.00 0.00 0.00 0.00 0.00 0.00 0.00 0.00 0.00 0.00 0.00 0.00 0.01 0.02 0.01 0.01 0.01 0.02 0.02 0.02 0.02 0.01 0.00 0.00 0.00 0.00 0.00 0.01 0.01 0.01 0.01 0.01 0.01 0.01 0.02 0.02 0.02 0.02
0.00 0.01 0.01 0.01 0.00 0.00 0.00 0.00 0.00 0.00 0.00 0.00 0.00 0.00 0.00 0.00 0.00 0.00 0.00 0.00 0.00 0.00 0.00 0.00 0.01 0.01 0.01 0.01 0.01 0.01 0.01 0.01 0.01 0.01 0.01 0.01 0.01 0.01 0.01 0.01 0.01 0.02 0.01 0.01 0.01 0.02 0.02 0.02 0.02
0.01 0.00 0.00 0.00 0.00 0.00 0.00 0.00 0.00 0.00 0.00 0.00 0.00 0.00 0.00 0.00 0.00 0.00 0.00 0.00 0.00 0.00 0.00 0.01 0.01 0.01 0.01 0.01 0.00 0.00 0.01 0.01 0.02 0.02 0.01 0.01 0.01 0.01 0.01 0.00 0.01 0.01 0.01 0.02 0.02 0.02 0.02 0.02 0.01
0.01 0.00 0.00 0.00 0.00 0.00 0.00 0.01 0.00 0.00 0.00 0.00 0.00 0.00 0.00 0.00 0.00 0.00 0.00 0.00 0.00 0.00 0.00 0.01 0.01 0.00 0.00 0.00 0.00 0.00 0.01 0.01 0.02 0.02 0.01 0.01 0.01 0.01 0.01 0.00 0.00 0.00 0.01 0.01 0.01 0.01 0.02 0.02 0.02
0.01 0.00 0.00 0.00 0.00 0.00 0.00 0.00 0.00 0.00 0.00 0.00 0.00 0.00 0.00 0.00 0.00 0.00 0.00 0.00 0.00 0.00 0.00 0.00 0.00 0.00 0.00 0.00 0.00 0.00 0.00 0.00 0.01 0.01 0.01 0.01 0.01 0.01 0.01 0.00 0.00 0.01 0.01 0.01 0.01 0.01 0.02 0.03 0.04
0.01 0.01 0.00 0.00 0.01 0.01 0.00 0.00 0.00 0.00 0.00 0.00 0.00 0.00 0.00 0.00 0.00 0.00 0.00 0.00 0.00 0.00 0.00 0.00 0.00 0.00 0.00 0.00 0.00 0.00 0.00 0.01 0.01 0.01 0.01 0.02 0.01 0.01 0.01 0.01 0.00 0.01 0.01 0.01 0.01 0.01 0.02 0.02 0.03
0.00 0.01 0.02 0.02 0.02 0.01 0.00 0.00 0.01 0.00 0.00 0.00 0.00 0.00 0.00 0.00 0.00 0.00 0.00 0.00 0.00 0.00 0.00 0.00 0.00 0.00 0.00 0.00 0.00 0.00 0.00 0.01 0.01 0.01 0.01 0.01 0.01 0.01 0.01 0.01 0.01 0.00 0.00 0.00 0.01 0.01 0.02 0.02 0.02
0.00 0.01 0.02 0.02 0.02 0.01 0.00 0.00 0.00 0.00 0.00 0.00 0.00 0.00 0.00 0.00 0.00 0.00 0.00 0.00 0.00 0.00 0.00 0.00 0.00 0.00 0.00 0.00 0.00 0.00 0.01 0.01 0.01 0.01 0.01 0.01 0.01 0.01 0.01 0.01 0.01 0.01 0.01 0.01 0.01 0.01 0.02 0.02 0.01
0.00 0.00 0.00 0.00 0.01 0.01 0.00 0.00 0.00 0.00 0.00 0.00 0.00 0.00 0.00 0.00 0.00 0.00 0.00 0.00 0.00 0.00 0.00 0.00 0.00 0.00 0.00 0.00 0.00 0.00 0.01 0.01 0.01 0.01 0.01 0.01 0.01 0.01 0.01 0.01 0.01 0.01 0.02 0.02 0.01 0.02 0.01 0.01 0.01
0.00 0.00 0.00 0.00 0.01 0.02 0.00 0.00 0.00 0.00 0.00 0.00 0.00 0.00 0.00 0.00 0.00 0.00 0.00 0.00 0.00 0.00 0.00 0.00 0.00 0.00 0.00 0.00 0.00 0.01 0.01 0.00 0.00 0.00 0.00 0.01 0.00 0.00 0.01 0.01 0.01 0.01 0.01 0.01 0.01 0.02 0.02 0.02 0.01
0.00 0.00 0.00 0.00 0.00 0.01 0.02 0.01 0.00 0.00 0.00 0.00 0.00 0.00 0.00 0.00 0.00 0.00 0.00 0.00 0.00 0.00 0.00 0.00 0.00 0.00 0.00 0.00 0.00 0.00 0.01 0.01 0.01 0.00 0.00 0.00 0.00 0.00 0.00 0.00 0.01 0.01 0.01 0.01 0.01 0.02 0.02 0.02 0.03
0.00 0.00 0.00 0.01 0.01 0.01 0.01 0.01 0.00 0.00 0.00 0.00 0.00 0.00 0.00 0.00 0.00 0.00 0.00 0.00 0.00 0.00 0.00 0.00 0.00 0.00 0.01 0.00 0.01 0.01 0.01 0.01 0.01 0.01 0.00 0.00 0.00 0.00 0.00 0.00 0.00 0.01 0.01 0.01 0.01 0.01 0.01 0.01 0.02
MSLP
1008.61 1009.31 1010.31 1011.50 1012.73 1013.85 1014.74 1015.32 1015.61 1015.63 1015.51 1015.36 1015.28 1015.33 1015.51 1015.78 1016.07 1016.28 1016.34 1016.24 1015.98 1015.64 1015.28 1014.97 1014.78 1014.71 1014.74 1014.81 1014.84 1014.80 1014.64 1014.37 1014.05 1013.71 1013.42 1013.21 1013.10 1013.07 1013.09 1013.10 1013.07 1012.98 1012.82 1012.62 1012.40 1012.20 1012.03 1011.89 1011.78
1008.97 1009.85 1010.98 1012.21 1013.40 1014.40 1015.11 1015.49 1015.58 1015.44 1015.21 1015.00 1014.90 1014.96 1015.16 1015.44 1015.73 1015.93 1015.98 1015.87 1015.63 1015.32 1015.02 1014.80 1014.71 1014.74 1014.85 1014.99 1015.08 1015.06 1014.93 1014.68 1014.36 1014.04 1013.76 1013.57 1013.46 1013.44 1013.46 1013.47 1013.43 1013.33 1013.17 1012.97 1012.74 1012.52 1012.33 1012.17 1012.04
1009.39 1010.43 1011.64 1012.88 1013.98 1014.83 1015.36 1015.55 1015.45 1015.18 1014.86 1014.61 1014.51 1014.58 1014.79 1015.08 1015.35 1015.53 1015.56 1015.44 1015.21 1014.94 1014.70 1014.57 1014.56 1014.68 1014.87 1015.07 1015.21 1015.24 1015.14 1014.93 1014.64 1014.35 1014.10 1013.93 1013.84 1013.81 1013.82 1013.83 1013.79 1013.69 1013.53 1013.33 1013.11 1012.89 1012.70 1012.54 1012.40
1009.83 1010.99 1012.24 1013.44 1014.43 1015.13 1015.48 1015.50 1015.27 1014.92 1014.56 1014.30 1014.22 1014.31 1014.53 1014.80 1015.04 1015.18 1015.17 1015.03 1014.80 1014.56 1014.37 1014.30 1014.37 1014.55 1014.80 1015.04 1015.22 1015.30 1015.25 1015.09 1014.86 1014.62 1014.42 1014.29 1014.22 1014.20 1014.21 1014.20 1014.15 1014.05 1013.90 1013.72 1013.52 1013.33 1013.16 1013.01 1012.88
1010.29 1011.50 1012.73 1013.85 1014.71 1015.25 1015.46 1015.36 1015.07 1014.69 1014.35 1014.14 1014.10 1014.22 1014.44 1014.68 1014.87 1014.95 1014.88 1014.70 1014.46 1014.23 1014.07 1014.04 1014.15 1014.37 1014.65 1014.92 1015.13 1015.24 1015.24 1015.14 1014.99 1014.84 1014.71 1014.63 1014.60 1014.61 1014.62 1014.61 1014.56 1014.46 1014.32 1014.15 1013.98 1013.81 1013.67 1013.54 1013.44
1010.77 1011.96 1013.11 1014.09 1014.81 1015.20 1015.29 1015.14 1014.84 1014.51 1014.25 1014.13 1014.17 1014.33 1014.54 1014.75 1014.87 1014.86 1014.72 1014.49 1014.22 1013.99 1013.85 1013.84 1013.96 1014.19 1014.46 1014.73 1014.94 1015.07 1015.12 1015.09 1015.03 1014.97 1014.94 1014.94 1014.97 1015.02 1015.04 1015.04 1014.98 1014.89 1014.75 1014.61 1014.46 1014.32 1014.20 1014.11 1014.03
1011.29 1012.39 1013.39 1014.20 1014.74 1015.00 1015.01 1014.84 1014.59 1014.37 1014.24 1014.25 1014.37 1014.58 1014.80 1014.95 1014.99 1014.89 1014.68 1014.40 1014.10 1013.87 1013.73 1013.73 1013.85 1014.06 1014.30 1014.54 1014.73 1014.85 1014.93 1014.97 1015.00 1015.04 1015.11 1015.21 1015.32 1015.41 1015.46 1015.46 1015.41 1015.31 1015.19 1015.05 1014.92 1014.81 1014.72 1014.65 1014.60
1011.90 1012.84 1013.65 1014.24 1014.58 1014.70 1014.63 1014.47 1014.31 1014.22 1014.25 1014.40 1014.64 1014.89 1015.11 1015.21 1015.18 1015.00 1014.72 1014.39 1014.09 1013.86 1013.74 1013.74 1013.85 1014.02 1014.22 1014.39 1014.54 1014.64 1014.72 1014.80 1014.91 1015.05 1015.22 1015.41 1015.60 1015.74 1015.83 1015.85 1015.80 1015.71 1015.58 1015.45 1015.34 1015.25 1015.19 1015.15 1015.14
1012.63 1013.37 1013.93 1014.28 1014.41 1014.37 1014.23 1014.09 1014.02 1014.07 1014.25 1014.54 1014.87 1015.17 1015.38 1015.44 1015.34 1015.10 1014.78 1014.44 1014.15 1013.95 1013.86 1013.88 1013.98 1014.12 1014.25 1014.36 1014.44 1014.50 1014.56 1014.65 1014.81 1015.02 1015.27 1015.55 1015.80 1016.00 1016.13 1016.17 1016.13 1016.04 1015.92 1015.81 1015.71 1015.65 1015.61 1015.61 1015.64
1013.46 1014.00 1014.31 1014.41 1014.31 1014.11 1013.89 1013.75 1013.74 1013.90 1014.21 1014.60 1015.01 1015.34 1015.54 1015.57 1015.42 1015.15 1014.82 1014.50 1014.25 1014.11 1014.08 1014.13 1014.24 1014.36 1014.44 1014.48 1014.48 1014.47 1014.49 1014.57 1014.73 1014.98 1015.29 1015.61 1015.92 1016.17 1016.33 1016.39 1016.37 1016.30 1016.20 1016.11 1016.04 1016.01 1016.02 1016.06 1016.13
1014.39 1014.74 1014.82 1014.67 1014.36 1014.00 1013.69 1013.52 1013.54 1013.77 1014.15 1014.61 1015.05 1015.40 1015.57 1015.57 1015.40 1015.12 1014.81 1014.54 1014.37 1014.31 1014.36 1014.47 1014.61 1014.72 1014.76 1014.74 1014.67 1014.59 1014.54 1014.58 1014.72 1014.97 1015.28 1015.63 1015.96 1016.24 1016.42 1016.52 1016.53 1016.50 1016.44 1016.39 1016.37 1016.38 1016.44 1016.54 1016.66
1015.37 1015.57 1015.46 1015.10 1014.61 1014.09 1013.68 1013.46 1013.47 1013.72 1014.12 1014.59 1015.04 1015.36 1015.51 1015.48 1015.30 1015.03 1014.77 1014.57 1014.48 1014.52 1014.66 1014.85 1015.04 1015.16 1015.19 1015.13 1014.99 1014.85 1014.74 1014.72 1014.81 1015.01 1015.29 1015.63 1015.95 1016.24 1016.45 1016.58 1016.64 1016.65 1016.65 1016.67 1016.71 1016.79 1016.91 1017.06 1017.24
1016.32 1016.42 1016.18 1015.68 1015.04 1014.41 1013.91 1013.62 1013.59 1013.80 1014.18 1014.62 1015.02 1015.30 1015.41 1015.35 1015.17 1014.92 1014.71 1014.58 1014.58 1014.72 1014.95 1015.22 1015.46 1015.62 1015.66 1015.58 1015.42 1015.23 1015.06 1014.97 1014.99 1015.13 1015.36 1015.64 1015.94 1016.21 1016.44 1016.60 1016.72 1016.80 1016.88 1016.97 1017.09 1017.25 1017.43 1017.64 1017.86
1017.17 1017.23 1016.92 1016.34 1015.62 1014.92 1014.35 1014.00 1013.91 1014.06 1014.37 1014.74 1015.07 1015.28 1015.35 1015.26 1015.07 1014.85 1014.67 1014.60 1014.68 1014.88 1015.18 1015.52 1015.82 1016.02 1016.10 1016.04 1015.89 1015.69 1015.49 1015.35 1015.30 1015.36 1015.51 1015.72 1015.97 1016.22 1016.44 1016.63 1016.80 1016.96 1017.12 1017.30 1017.50 1017.73 1017.98 1018.24 1018.50
1017.83 1017.89 1017.57 1016.98 1016.25 1015.53 1014.94 1014.55 1014.40 1014.48 1014.69 1014.97 1015.21 1015.35 1015.36 1015.25 1015.05 1014.84 1014.69 1014.66 1014.76 1015.00 1015.34 1015.72 1016.06 1016.32 1016.45 1016.46 1016.35 1016.18 1015.98 1015.82 1015.73 1015.71 1015.77 1015.91 1016.08 1016.29 1016.49 1016.71 1016.92 1017.14 1017.38 1017.64 1017.92 1018.21 1018.51 1018.80 1019.08
1018.25 1018.33 1018.05 1017.51 1016.83 1016.15 1015.58 1015.17 1014.98 1014.98 1015.10 1015.27 1015.43 1015.49 1015.46 1015.32 1015.12 1014.92 1014.78 1014.75 1014.85 1015.09 1015.43 1015.81 1016.18 1016.49 1016.69 1016.78 1016.76 1016.66 1016.52 1016.37 1016.25 1016.18 1016.17 1016.21 1016.31 1016.45 1016.63 1016.84 1017.08 1017.35 1017.65 1017.96 1018.29 1018.63 1018.95 1019.26 1019.55
1018.40 1018.51 1018.29 1017.85 1017.27 1016.68 1016.16 1015.77 1015.54 1015.47 1015.50 1015.58 1015.65 1015.65 1015.58 1015.44 1015.24 1015.05 1014.92 1014.88 1014.95 1015.15 1015.45 1015.81 1016.19 1016.54 1016.82 1017.01 1017.10 1017.11 1017.05 1016.96 1016.84 1016.74 1016.67 1016.63 1016.65 1016.72 1016.85 1017.04 1017.28 1017.57 1017.90 1018.25 1018.60 1018.95 1019.27 1019.58 1019.86
1018.28 1018.41 1018.27 1017.95 1017.51 1017.04 1016.60 1016.24 1016.00 1015.86 1015.80 1015.79 1015.78 1015.74 1015.66 1015.53 1015.36 1015.20 1015.08 1015.03 1015.07 1015.21 1015.45 1015.76 1016.13 1016.50 1016.85 1017.14 1017.37 1017.51 1017.56 1017.55 1017.47 1017.36 1017.24 1017.14 1017.07 1017.07 1017.14 1017.29 1017.51 1017.80 1018.12 1018.47 1018.82 1019.16 1019.47 1019.75 1020.01
1017.93 1018.07 1018.02 1017.83 1017.54 1017.20 1016.85 1016.53 1016.27 1016.06 1015.92 1015.81 1015.74 1015.67 1015.60 1015.51 1015.41 1015.31 1015.23 1015.18 1015.19 1015.28 1015.45 1015.71 1016.04 1016.41 1016.82 1017.21 1017.56 1017.83 1018.01 1018.09 1018.08 1017.98 1017.84 1017.69 1017.55 1017.48 1017.48 1017.58 1017.77 1018.02 1018.33 1018.65 1018.98 1019.28 1019.55 1019.80 1020.04
1017.43 1017.57 1017.61 1017.55 1017.41 1017.20 1016.93 1016.64 1016.33 1016.05 1015.80 1015.60 1015.46 1015.38 1015.34 1015.32 1015.32 1015.32 1015.32 1015.31 1015.33 1015.38 1015.49 1015.68 1015.97 1016.33 1016.76 1017.22 1017.67 1018.07 1018.37 1018.55 1018.61 1018.54 1018.40 1018.21 1018.03 1017.89 1017.84 1017.89 1018.03 1018.25 1018.52 1018.81 1019.10 1019.36 1019.59 1019.80 1020.00
1016.86 1017.01 1017.14 1017.21 1017.21 1017.11 1016.90 1016.60 1016.23 1015.84 1015.46 1015.16 1014.95 1014.85 1014.85 1014.93 1015.07 1015.20 1015.32 1015.40 1015.46 1015.50 1015.58 1015.71 1015.94 1016.27 1016.69 1017.19 1017.71 1018.19 1018.59 1018.86 1018.99 1018.97 1018.84 1018.65 1018.45 1018.28 1018.19 1018.20 1018.31 1018.49 1018.73 1018.99 1019.24 1019.45 1019.64 1019.81 1019.97
1016.33 1016.52 1016.74 1016.94 1017.05 1017.04 1016.86 1016.52 1016.05 1015.51 1014.98 1014.54 1014.25 1014.12 1014.17 1014.36 1014.64 1014.94 1015.22 1015.42 1015.56 1015.63 1015.69 1015.77 1015.94 1016.22 1016.61 1017.10 1017.64 1018.17 1018.64 1018.98 1019.17 1019.21 1019.12 1018.95 1018.76 1018.59 1018.49 1018.49 1018.59 1018.76 1018.98 1019.21 1019.42 1019.61 1019.75 1019.88 1020.01
1015.92 1016.17 1016.50 1016.82 1017.03 1017.07 1016.88 1016.47 1015.87 1015.17 1014.47 1013.87 1013.46 1013.30 1013.38 1013.66 1014.09 1014.56 1015.00 1015.36 1015.59 1015.72 1015.78 1015.83 1015.94 1016.15 1016.48 1016.93 1017.45 1018.00 1018.50 1018.89 1019.15 1019.25 1019.22 1019.10 1018.95 1018.82 1018.75 1018.77 1018.87 1019.05 1019.26 1019.48 1019.67 1019.83 1019.94 1020.03 1020.12
1015.68 1016.03 1016.47 1016.89 1017.19 1017.26 1017.04 1016.54 1015.79 1014.91 1014.01 1013.25 1012.72 1012.49 1012.57 1012.92 1013.46 1014.08 1014.68 1015.18 1015.52 1015.71 1015.79 1015.82 1015.87 1016.01 1016.27 1016.65 1017.14 1017.67 1018.18 1018.61 1018.92 1019.09 1019.14 1019.11 1019.03 1018.96 1018.95 1019.01 1019.15 1019.35 1019.57 1019.79 1019.98 1020.11 1020.19 1020.25 1020.29
1015.63 1016.08 1016.63 1017.15 1017.51 1017.59 1017.34 1016.73 1015.85 1014.79 1013.71 1012.78 1012.11 1011.79 1011.84 1012.21 1012.82 1013.55 1014.27 1014.88 1015.31 1015.57 1015.67 1015.68 1015.69 1015.76 1015.94 1016.26 1016.69 1017.19 1017.70 1018.16 1018.53 1018.78 1018.93 1018.99 1019.01 1019.04 1019.10 1019.22 1019.41 1019.64 1019.89 1020.11 1020.29 1020.41 1020.47 1020.49 1020.49
1015.70 1016.27 1016.92 1017.51 1017.92 1018.01 1017.71 1017.03 1016.03 1014.82 1013.60 1012.51 1011.71 1011.29 1011.27 1011.62 1012.24 1013.01 1013.78 1014.45 1014.95 1015.24 1015.36 1015.36 1015.33 1015.35 1015.48 1015.74 1016.12 1016.60 1017.12 1017.61 1018.05 1018.38 1018.63 1018.80 1018.93 1019.06 1019.21 1019.40 1019.64 1019.90 1020.17 1020.40 1020.58 1020.69 1020.73 1020.72 1020.68
1015.85 1016.49 1017.21 1017.86 1018.29 1018.38 1018.07 1017.34 1016.27 1014.98 1013.65 1012.46 1011.55 1011.02 1010.91 1011.19 1011.76 1012.49 1013.26 1013.93 1014.43 1014.73 1014.85 1014.85 1014.81 1014.80 1014.89 1015.12 1015.48 1015.95 1016.49 1017.03 1017.53 1017.96 1018.31 1018.59 1018.83 1019.05 1019.28 1019.54 1019.82 1020.11 1020.38 1020.62 1020.80 1020.90 1020.93 1020.90 1020.84
1015.96 1016.65 1017.40 1018.06 1018.50 1018.60 1018.28 1017.56 1016.49 1015.18 1013.83 1012.59 1011.62 1011.01 1010.79 1010.96 1011.42 1012.05 1012.73 1013.33 1013.79 1014.07 1014.18 1014.17 1014.13 1014.13 1014.22 1014.45 1014.82 1015.31 1015.87 1016.47 1017.04 1017.56 1018.00 1018.38 1018.72 1019.02 1019.32 1019.62 1019.93 1020.23 1020.51 1020.75 1020.93 1021.03 1021.06 1021.03 1020.95
1015.98 1016.66 1017.38 1018.01 1018.44 1018.54 1018.26 1017.59 1016.59 1015.36 1014.06 1012.86 1011.87 1011.21 1010.91 1010.94 1011.25 1011.73 1012.26 1012.75 1013.11 1013.33 1013.41 1013.41 1013.38 1013.40 1013.53 1013.79 1014.19 1014.72 1015.33 1015.98 1016.61 1017.20 1017.73 1018.19 1018.60 1018.96 1019.30 1019.63 1019.96 1020.26 1020.54 1020.78 1020.96 1021.07 1021.11 1021.09 1021.04
1015.88 1016.48 1017.13 1017.70 1018.08 1018.19 1017.97 1017.40 1016.53 1015.45 1014.30 1013.20 1012.27 1011.60 1011.23 1011.14 1011.29 1011.58 1011.93 1012.25 1012.49 1012.63 1012.67 1012.66 1012.65 1012.72 1012.89 1013.20 1013.65 1014.23 1014.88 1015.57 1016.26 1016.90 1017.48 1018.00 1018.45 1018.85 1019.22 1019.56 1019.89 1020.20 1020.47 1020.71 1020.90 1021.03 1021.10 1021.13 1021.11
Thickness
5809 5811 5810 5797 5775 5761 5757 5765 5773 5773 5778 5786 5790 5786 5774 5766 5758 5746 5768 5781 5782 5780 5777 5775 5774 5774 5774 5773 5773 5773 5772 5771 5771 5770 5770 5769 5769 5769 5768 5768 5768 5768 5768 5767 5767 5767 5767 5768 5768
5812 5814 5804 5786 5763 5749 5751 5766 5767 5772 5781 5789 5789 5785 5775 5769 5773 5769 5773 5779 5782 5780 5776 5773 5772 5771 5771 5771 5770 5770 5769 5769 5768 5768 5767 5766 5766 5766 5765 5765 5765 5765 5764 5764 5764 5764 5764 5764 5765
5812 5812 5792 5776 5762 5752 5753 5768 5771 5780 5787 5787 5781 5780 5773 5767 5773 5772 5776 5781 5781 5778 5774 5770 5770 5769 5768 5768 5767 5767 5766 5766 5765 5764 5764 5763 5763 5762 5762 5762 5762 5761 5761 5761 5760 5761 5761 5761 5762
5809 5799 5788 5769 5757 5765 5767 5772 5779 5778 5781 5786 5781 5770 5769 5776 5776 5776 5780 5781 5778 5776 5772 5769 5767 5767 5766 5765 5765 5764 5763 5763 5762 5761 5760 5760 5759 5759 5759 5759 5758 5758 5757 5757 5757 5757 5757 5758 5758
5806 5786 5768 5758 5759 5770 5778 5782 5783 5775 5774 5778 5776 5762 5759 5773 5779 5779 5779 5779 5776 5774 5771 5767 5766 5765 5764 5763 5762 5761 5760 5760 5759 5759 5758 5757 5756 5756 5755 5755 5755 5754 5754 5753 5753 5753 5753 5754 5754
5788 5780 5757 5748 5757 5768 5777 5783 5782 5775 5773 5776 5772 5761 5758 5772 5774 5775 5778 5777 5776 5773 5770 5766 5764 5763 5762 5761 5760 5759 5758 5757 5756 5756 5755 5754 5753 5753 5752 5751 5751 5750 5750 5750 5750 5750 5750 5750 5751
5779 5768 5756 5755 5755 5761 5772 5782 5777 5772 5769 5773 5776 5761 5758 5767 5772 5775 5776 5776 5775 5773 5770 5766 5763 5761 5760 5759 5758 5757 5756 5755 5754 5753 5753 5752 5751 5750 5749 5748 5747 5747 5747 5746 5746 5746 5746 5746 5747
5790 5772 5759 5758 5755 5757 5774 5778 5778 5772 5767 5778 5778 5760 5754 5764 5773 5774 5773 5772 5772 5771 5769 5767 5764 5762 5760 5757 5756 5755 5754 5753 5752 5752 5751 5750 5748 5747 5746 5745 5744 5744 5743 5743 5743 5743 5743 5743 5744
5792 5762 5750 5756 5757 5760 5774 5771 5774 5778 5772 5771 5772 5768 5767 5771 5772 5768 5766 5765 5765 5766 5766 5766 5765 5762 5760 5758 5755 5753 5752 5751 5750 5750 5749 5748 5747 5745 5744 5742 5742 5741 5741 5740 5740 5740 5740 5740 5741
5779 5752 5755 5768 5771 5767 5770 5769 5770 5767 5761 5760 5762 5766 5769 5768 5765 5761 5758 5757 5757 5759 5762 5763 5763 5761 5759 5757 5754 5753 5751 5750 5749 5749 5747 5746 5745 5744 5742 5740 5739 5738 5738 5737 5737 5737 5737 5737 5737
5775 5760 5765 5771 5776 5773 5768 5766 5770 5760 5749 5755 5755 5758 5762 5762 5760 5758 5757 5756 5756 5757 5758 5760 5760 5759 5757 5755 5753 5751 5750 5748 5748 5747 5745 5744 5742 5741 5739 5737 5736 5736 5735 5735 5735 5734 5735 5735 5734
5770 5769 5771 5771 5774 5770 5766 5765 5761 5757 5755 5764 5764 5762 5760 5757 5755 5755 5755 5755 5755 5754 5754 5756 5757 5756 5755 5753 5751 5749 5747 5745 5744 5743 5742 5741 5739 5738 5736 5735 5734 5733 5733 5732 5731 5731 5731 5730 5730
5764 5764 5769 5770 5769 5768 5765 5760 5757 5756 5763 5766 5764 5760 5756 5755 5755 5757 5757 5756 5755 5752 5752 5754 5755 5754 5752 5750 5748 5746 5743 5742 5741 5740 5739 5737 5735 5734 5733 5731 5730 5729 5729 5728 5728 5727 5725 5724 5723
5765 5765 5765 5767 5765 5765 5759 5756 5755 5754 5763 5761 5758 5755 5754 5754 5754 5754 5753 5752 5752 5750 5750 5751 5751 5751 5750 5747 5744 5742 5740 5738 5737 5735 5735 5734 5732 5730 5728 5727 5725 5725 5724 5724 5723 5722 5720 5718 5717
5768 5758 5756 5760 5763 5762 5757 5744 5748 5758 5760 5755 5754 5753 5752 5753 5753 5751 5752 5751 5750 5749 5749 5747 5748 5747 5746 5743 5741 5738 5736 5735 5733 5731 5731 5729 5728 5726 5724 5722 5721 5720 5720 5719 5717 5717 5715 5714 5712
5760 5749 5739 5753 5761 5762 5748 5730 5749 5759 5755 5749 5750 5750 5749 5750 5751 5752 5752 5751 5750 5748 5746 5745 5745 5743 5741 5740 5737 5735 5733 5731 5729 5727 5726 5725 5724 5722 5720 5718 5717 5716 5715 5713 5712 5710 5708 5707 5705
5747 5737 5736 5746 5760 5760 5747 5733 5748 5758 5754 5748 5748 5748 5747 5747 5748 5750 5750 5749 5748 5746 5744 5741 5740 5738 5736 5735 5733 5731 5729 5726 5724 5723 5721 5720 5719 5718 5715 5714 5713 5712 5710 5708 5707 5705 5703 5700 5700
5736 5739 5740 5742 5753 5753 5742 5737 5747 5755 5753 5749 5748 5748 5747 5745 5746 5748 5748 5747 5746 5744 5742 5739 5737 5735 5732 5730 5727 5725 5723 5722 5720 5718 5716 5715 5714 5713 5711 5709 5708 5707 5704 5702 5701 5700 5699 5697 5696
5750 5743 5738 5745 5757 5749 5741 5740 5746 5754 5752 5748 5747 5747 5747 5746 5749 5749 5747 5745 5742 5740 5737 5735 5732 5730 5727 5724 5720 5717 5714 5715 5714 5713 5712 5710 5709 5707 5706 5704 5703 5701 5699 5697 5696 5695 5693 5692 5693
5747 5738 5737 5744 5755 5749 5741 5741 5750 5754 5752 5751 5749 5747 5747 5746 5746 5745 5743 5740 5738 5735 5733 5731 5729 5726 5723 5720 5718 5715 5712 5711 5710 5708 5707 5705 5704 5702 5702 5699 5697 5696 5694 5692 5691 5690 5687 5687 5688
5741 5737 5736 5737 5745 5749 5740 5733 5744 5753 5755 5754 5753 5751 5750 5747 5744 5742 5739 5736 5734 5732 5730 5728 5725 5723 5720 5717 5714 5712 5708 5706 5703 5701 5700 5700 5699 5698 5696 5695 5693 5691 5690 5687 5686 5686 5683 5680 5682
5733 5746 5743 5739 5731 5727 5735 5715 5733 5746 5746 5747 5748 5748 5747 5747 5745 5741 5737 5734 5731 5729 5728 5725 5722 5719 5716 5714 5709 5705 5700 5696 5696 5696 5695 5695 5694 5693 5691 5690 5689 5688 5686 5684 5683 5683 5681 5678 5675
5739 5748 5743 5738 5732 5727 5734 5723 5731 5744 5737 5741 5745 5746 5746 5746 5744 5740 5737 5733 5731 5729 5725 5722 5719 5716 5713 5710 5706 5702 5698 5695 5694 5692 5691 5690 5689 5688 5687 5686 5685 5683 5682 5681 5680 5679 5678 5675 5673
5746 5742 5739 5738 5729 5711 5729 5723 5721 5737 5740 5742 5745 5745 5745 5744 5743 5739 5737 5733 5729 5726 5722 5719 5715 5712 5710 5707 5703 5700 5695 5692 5689 5686 5684 5684 5683 5683 5683 5681 5680 5679 5678 5677 5676 5675 5674 5672 5670
5738 5722 5706 5703 5703 5711 5738 5728 5726 5744 5751 5748 5744 5743 5743 5742 5739 5735 5732 5727 5724 5721 5718 5715 5711 5707 5706 5703 5700 5697 5693 5690 5686 5683 5681 5679 5677 5676 5677 5677 5676 5675 5674 5673 5672 5671 5669 5668 5666
5732 5724 5702 5691 5699 5714 5730 5723 5730 5750 5753 5752 5749 5745 5742 5739 5736 5732 5729 5725 5721 5718 5714 5711 5707 5704 5702 5699 5697 5695 5691 5687 5683 5681 5678 5676 5674 5673 5672 5671 5671 5670 5669 5668 5667 5665 5664 5664 5662
5726 5723 5730 5715 5714 5708 5720 5727 5735 5747 5744 5744 5742 5739 5736 5735 5732 5729 5727 5723 5718 5715 5711 5708 5704 5700 5698 5696 5693 5690 5687 5684 5680 5678 5675 5673 5671 5670 5669 5667 5665 5665 5663 5662 5661 5659 5658 5658 5657
5736 5731 5722 5710 5695 5690 5710 5719 5717 5727 5730 5734 5735 5732 5731 5731 5729 5726 5722 5719 5716 5712 5708 5706 5701 5697 5694 5691 5688 5685 5682 5679 5677 5674 5671 5669 5668 5666 5664 5662 5661 5659 5658 5657 5656 5654 5653 5652 5651
5726 5723 5720 5715 5711 5692 5689 5702 5733 5731 5733 5730 5731 5730 5728 5726 5724 5721 5718 5715 5712 5708 5704 5700 5696 5692 5688 5685 5683 5679 5676 5674 5672 5669 5667 5665 5663 5661 5659 5658 5656 5654 5653 5652 5650 5649 5648 5646 5646
5730 5724 5718 5700 5701 5705 5695 5700 5740 5736 5735 5732 5729 5728 5726 5723 5721 5717 5714 5710 5706 5702 5698 5694 5691 5687 5684 5681 5678 5674 5671 5669 5666 5664 5662 5660 5658 5656 5654 5653 5650 5649 5648 5647 5645 5643 5642 5641 5640